Year,Month,Day,Hour,Minute,Value (Times are PST for temperature in C)
2005,07,06,00,00,14.80
2005,07,06,00,01,14.80
2005,07,06,00,02,14.80
2005,07,06,00,03,14.80
2005,07,06,00,04,14.80
2005,07,06,00,05,14.80
2005,07,06,00,06,14.80
2005,07,06,00,07,14.80
2005,07,06,00,08,14.70
2005,07,06,00,09,14.70
2005,07,06,00,10,14.70
2005,07,06,00,11,14.70
2005,07,06,00,12,14.70
2005,07,06,00,13,14.70
2005,07,06,00,14,14.70
2005,07,06,00,15,14.70
2005,07,06,00,16,14.60
2005,07,06,00,17,14.60
2005,07,06,00,18,14.60
2005,07,06,00,19,14.60
2005,07,06,00,20,14.50
2005,07,06,00,21,14.50
2005,07,06,00,22,14.50
2005,07,06,00,23,14.50
2005,07,06,00,24,14.50
2005,07,06,00,25,14.40
2005,07,06,00,26,14.40
2005,07,06,00,27,14.40
2005,07,06,00,28,14.40
2005,07,06,00,29,14.40
2005,07,06,00,30,14.30
2005,07,06,00,31,14.30
2005,07,06,00,32,14.30
2005,07,06,00,33,14.30
2005,07,06,00,34,14.30
2005,07,06,00,35,14.20
2005,07,06,00,36,14.20
2005,07,06,00,37,14.20
2005,07,06,00,38,14.20
2005,07,06,00,39,14.20
2005,07,06,00,40,14.20
2005,07,06,00,41,14.20
2005,07,06,00,42,14.20
2005,07,06,00,43,14.20
2005,07,06,00,44,14.20
2005,07,06,00,45,14.20
2005,07,06,00,46,14.20
2005,07,06,00,47,14.20
2005,07,06,00,48,14.20
2005,07,06,00,49,14.20
2005,07,06,00,50,14.20
2005,07,06,00,51,14.20
2005,07,06,00,52,14.20
2005,07,06,00,53,14.20
2005,07,06,00,54,14.20
2005,07,06,00,55,14.20
2005,07,06,00,56,14.20
2005,07,06,00,57,14.20
2005,07,06,00,58,14.20
2005,07,06,00,59,14.20
2005,07,06,01,00,14.20
2005,07,06,01,01,14.20
2005,07,06,01,02,14.20
2005,07,06,01,03,14.20
2005,07,06,01,04,14.10
2005,07,06,01,05,14.10
2005,07,06,01,06,14.10
2005,07,06,01,07,14.10
2005,07,06,01,08,14.10
2005,07,06,01,09,14.10
2005,07,06,01,10,14.10
2005,07,06,01,11,14.10
2005,07,06,01,12,14.10
2005,07,06,01,13,14.10
2005,07,06,01,14,14.10
2005,07,06,01,15,14.10
2005,07,06,01,16,14.10
2005,07,06,01,17,14.10
2005,07,06,01,18,14.10
2005,07,06,01,19,14.00
2005,07,06,01,20,14.00
2005,07,06,01,21,14.00
2005,07,06,01,22,14.00
2005,07,06,01,23,14.00
2005,07,06,01,24,13.90
2005,07,06,01,25,13.90
2005,07,06,01,26,13.90
2005,07,06,01,27,13.90
2005,07,06,01,28,13.90
2005,07,06,01,29,13.90
2005,07,06,01,30,13.80
2005,07,06,01,31,13.80
2005,07,06,01,32,13.80
2005,07,06,01,33,13.80
2005,07,06,01,34,13.70
2005,07,06,01,35,13.70
2005,07,06,01,36,13.70
2005,07,06,01,37,13.70
2005,07,06,01,38,13.70
2005,07,06,01,39,13.70
2005,07,06,01,40,13.70
2005,07,06,01,41,13.70
2005,07,06,01,42,13.70
2005,07,06,01,43,13.70
2005,07,06,01,44,13.70
2005,07,06,01,45,13.70
2005,07,06,01,46,13.70
2005,07,06,01,47,13.70
2005,07,06,01,48,13.70
2005,07,06,01,49,13.70
2005,07,06,01,50,13.70
2005,07,06,01,51,13.80
2005,07,06,01,52,13.80
2005,07,06,01,53,13.80
2005,07,06,01,54,13.80
2005,07,06,01,55,13.80
2005,07,06,01,56,13.80
2005,07,06,01,57,13.80
2005,07,06,01,58,13.80
2005,07,06,01,59,13.80
2005,07,06,02,00,13.80
2005,07,06,02,01,13.90
2005,07,06,02,02,13.90
2005,07,06,02,03,13.90
2005,07,06,02,04,13.90
2005,07,06,02,05,13.90
2005,07,06,02,06,13.90
2005,07,06,02,07,13.90
2005,07,06,02,08,13.90
2005,07,06,02,09,13.90
2005,07,06,02,10,13.90
2005,07,06,02,11,13.90
2005,07,06,02,12,14.00
2005,07,06,02,13,14.00
2005,07,06,02,14,14.00
2005,07,06,02,15,14.00
2005,07,06,02,16,14.00
2005,07,06,02,17,14.00
2005,07,06,02,18,14.00
2005,07,06,02,19,14.10
2005,07,06,02,20,14.10
2005,07,06,02,21,14.10
2005,07,06,02,22,14.10
2005,07,06,02,23,14.10
2005,07,06,02,24,14.10
2005,07,06,02,25,14.10
2005,07,06,02,26,14.10
2005,07,06,02,27,14.10
2005,07,06,02,28,14.10
2005,07,06,02,29,14.10
2005,07,06,02,30,14.10
2005,07,06,02,31,14.10
2005,07,06,02,32,14.10
2005,07,06,02,33,14.10
2005,07,06,02,34,14.10
2005,07,06,02,35,14.10
2005,07,06,02,36,14.10
2005,07,06,02,37,14.10
2005,07,06,02,38,14.10
2005,07,06,02,39,14.10
2005,07,06,02,40,14.10
2005,07,06,02,41,14.10
2005,07,06,02,42,14.10
2005,07,06,02,43,14.10
2005,07,06,02,44,14.10
2005,07,06,02,45,14.10
2005,07,06,02,46,14.10
2005,07,06,02,47,14.10
2005,07,06,02,48,14.10
2005,07,06,02,49,14.10
2005,07,06,02,50,14.10
2005,07,06,02,51,14.10
2005,07,06,02,52,14.10
2005,07,06,02,53,14.10
2005,07,06,02,54,14.10
2005,07,06,02,55,14.10
2005,07,06,02,56,14.10
2005,07,06,02,57,14.10
2005,07,06,02,58,14.10
2005,07,06,02,59,14.10
2005,07,06,03,00,14.10
2005,07,06,03,01,14.10
2005,07,06,03,02,14.10
2005,07,06,03,03,14.10
2005,07,06,03,04,14.10
2005,07,06,03,05,14.10
2005,07,06,03,06,14.10
2005,07,06,03,07,14.10
2005,07,06,03,08,14.10
2005,07,06,03,09,14.10
2005,07,06,03,10,14.10
2005,07,06,03,11,14.10
2005,07,06,03,12,14.10
2005,07,06,03,13,14.10
2005,07,06,03,14,14.10
2005,07,06,03,15,14.10
2005,07,06,03,16,14.00
2005,07,06,03,17,14.00
2005,07,06,03,18,14.00
2005,07,06,03,19,14.00
2005,07,06,03,20,14.00
2005,07,06,03,21,14.00
2005,07,06,03,22,14.00
2005,07,06,03,23,14.00
2005,07,06,03,24,14.00
2005,07,06,03,25,14.00
2005,07,06,03,26,14.00
2005,07,06,03,27,14.00
2005,07,06,03,28,14.00
2005,07,06,03,29,14.00
2005,07,06,03,30,14.00
2005,07,06,03,31,14.00
2005,07,06,03,32,14.00
2005,07,06,03,33,14.00
2005,07,06,03,34,14.00
2005,07,06,03,35,14.00
2005,07,06,03,36,14.00
2005,07,06,03,37,14.00
2005,07,06,03,38,14.00
2005,07,06,03,39,14.00
2005,07,06,03,40,14.00
2005,07,06,03,41,13.90
2005,07,06,03,42,13.90
2005,07,06,03,43,13.90
2005,07,06,03,44,13.90
2005,07,06,03,45,13.90
2005,07,06,03,46,13.90
2005,07,06,03,47,13.90
2005,07,06,03,48,13.90
2005,07,06,03,49,13.80
2005,07,06,03,50,13.80
2005,07,06,03,51,13.80
2005,07,06,03,52,13.80
2005,07,06,03,53,13.80
2005,07,06,03,54,13.80
2005,07,06,03,55,13.80
2005,07,06,03,56,13.70
2005,07,06,03,57,13.70
2005,07,06,03,58,13.70
2005,07,06,03,59,13.70
2005,07,06,04,00,13.70
2005,07,06,04,01,13.80
2005,07,06,04,02,13.80
2005,07,06,04,03,13.80
2005,07,06,04,04,13.80
2005,07,06,04,05,13.80
2005,07,06,04,06,13.80
2005,07,06,04,07,13.80
2005,07,06,04,08,13.80
2005,07,06,04,09,13.80
2005,07,06,04,10,13.80
2005,07,06,04,11,13.80
2005,07,06,04,12,13.80
2005,07,06,04,13,13.80
2005,07,06,04,14,13.90
2005,07,06,04,15,13.90
2005,07,06,04,16,13.90
2005,07,06,04,17,14.00
2005,07,06,04,18,14.00
2005,07,06,04,19,14.00
2005,07,06,04,20,14.10
2005,07,06,04,21,14.10
2005,07,06,04,22,14.20
2005,07,06,04,23,14.20
2005,07,06,04,24,14.20
2005,07,06,04,25,14.20
2005,07,06,04,26,14.20
2005,07,06,04,27,14.20
2005,07,06,04,28,14.20
2005,07,06,04,29,14.20
2005,07,06,04,30,14.20
2005,07,06,04,31,14.20
2005,07,06,04,32,14.20
2005,07,06,04,33,14.30
2005,07,06,04,34,14.30
2005,07,06,04,35,14.30
2005,07,06,04,36,14.30
2005,07,06,04,37,14.30
2005,07,06,04,38,14.30
2005,07,06,04,39,14.30
2005,07,06,04,40,14.30
2005,07,06,04,41,14.30
2005,07,06,04,42,14.30
2005,07,06,04,43,14.30
2005,07,06,04,44,14.40
2005,07,06,04,45,14.50
2005,07,06,04,46,14.50
2005,07,06,04,47,14.60
2005,07,06,04,48,14.60
2005,07,06,04,49,14.60
2005,07,06,04,50,14.70
2005,07,06,04,51,14.80
2005,07,06,04,52,14.80
2005,07,06,04,53,14.80
2005,07,06,04,54,14.80
2005,07,06,04,55,14.90
2005,07,06,04,56,14.90
2005,07,06,04,57,15.00
2005,07,06,04,58,15.00
2005,07,06,04,59,15.00
2005,07,06,05,00,15.10
2005,07,06,05,01,15.10
2005,07,06,05,02,15.10
2005,07,06,05,03,15.20
2005,07,06,05,04,15.20
2005,07,06,05,05,15.20
2005,07,06,05,06,15.20
2005,07,06,05,07,15.20
2005,07,06,05,08,15.30
2005,07,06,05,09,15.30
2005,07,06,05,10,15.30
2005,07,06,05,11,15.30
2005,07,06,05,12,15.30
2005,07,06,05,13,15.30
2005,07,06,05,14,15.30
2005,07,06,05,15,15.30
2005,07,06,05,16,15.30
2005,07,06,05,17,15.30
2005,07,06,05,18,15.30
2005,07,06,05,19,15.30
2005,07,06,05,20,15.20
2005,07,06,05,21,15.20
2005,07,06,05,22,15.20
2005,07,06,05,23,15.20
2005,07,06,05,24,15.20
2005,07,06,05,25,15.20
2005,07,06,05,26,15.20
2005,07,06,05,27,15.20
2005,07,06,05,28,15.20
2005,07,06,05,29,15.20
2005,07,06,05,30,15.20
2005,07,06,05,31,15.20
2005,07,06,05,32,15.20
2005,07,06,05,33,15.20
2005,07,06,05,34,15.10
2005,07,06,05,35,15.10
2005,07,06,05,36,15.10
2005,07,06,05,37,15.10
2005,07,06,05,38,15.10
2005,07,06,05,39,15.10
2005,07,06,05,40,15.10
2005,07,06,05,41,15.20
2005,07,06,05,42,15.20
2005,07,06,05,43,15.20
2005,07,06,05,44,15.20
2005,07,06,05,45,15.20
2005,07,06,05,46,15.20
2005,07,06,05,47,15.20
2005,07,06,05,48,15.20
2005,07,06,05,49,15.20
2005,07,06,05,50,15.10
2005,07,06,05,51,15.10
2005,07,06,05,52,15.10
2005,07,06,05,53,15.10
2005,07,06,05,54,15.10
2005,07,06,05,55,15.00
2005,07,06,05,56,15.00
2005,07,06,05,57,15.00
2005,07,06,05,58,15.00
2005,07,06,05,59,15.00
2005,07,06,06,00,15.00
2005,07,06,06,01,15.00
2005,07,06,06,02,15.00
2005,07,06,06,03,15.00
2005,07,06,06,04,15.00
2005,07,06,06,05,15.00
2005,07,06,06,06,15.00
2005,07,06,06,07,15.00
2005,07,06,06,08,14.90
2005,07,06,06,09,14.90
2005,07,06,06,10,14.90
2005,07,06,06,11,14.90
2005,07,06,06,12,14.80
2005,07,06,06,13,14.80
2005,07,06,06,14,14.80
2005,07,06,06,15,14.80
2005,07,06,06,16,14.80
2005,07,06,06,17,14.80
2005,07,06,06,18,14.80
2005,07,06,06,19,14.80
2005,07,06,06,20,14.80
2005,07,06,06,21,14.80
2005,07,06,06,22,14.80
2005,07,06,06,23,14.80
2005,07,06,06,24,14.80
2005,07,06,06,25,14.80
2005,07,06,06,26,14.80
2005,07,06,06,27,14.80
2005,07,06,06,28,14.80
2005,07,06,06,29,14.80
2005,07,06,06,30,14.80
2005,07,06,06,31,14.80
2005,07,06,06,32,14.80
2005,07,06,06,33,14.80
2005,07,06,06,34,14.80
2005,07,06,06,35,14.80
2005,07,06,06,36,14.80
2005,07,06,06,37,14.80
2005,07,06,06,38,14.80
2005,07,06,06,39,14.80
2005,07,06,06,40,14.80
2005,07,06,06,41,14.80
2005,07,06,06,42,14.80
2005,07,06,06,43,14.80
2005,07,06,06,44,14.80
2005,07,06,06,45,14.80
2005,07,06,06,46,14.80
2005,07,06,06,47,14.80
2005,07,06,06,48,14.80
2005,07,06,06,49,14.80
2005,07,06,06,50,14.80
2005,07,06,06,51,14.80
2005,07,06,06,52,14.80
2005,07,06,06,53,14.90
2005,07,06,06,54,14.90
2005,07,06,06,55,14.90
2005,07,06,06,56,14.90
2005,07,06,06,57,14.90
2005,07,06,06,58,14.90
2005,07,06,06,59,14.90
2005,07,06,07,00,15.00
2005,07,06,07,01,15.00
2005,07,06,07,02,15.00
2005,07,06,07,03,15.00
2005,07,06,07,04,15.00
2005,07,06,07,05,15.10
2005,07,06,07,06,15.10
2005,07,06,07,07,15.10
2005,07,06,07,08,15.10
2005,07,06,07,09,15.10
2005,07,06,07,10,15.10
2005,07,06,07,11,15.10
2005,07,06,07,12,15.10
2005,07,06,07,13,15.10
2005,07,06,07,14,15.10
2005,07,06,07,15,15.10
2005,07,06,07,16,15.10
2005,07,06,07,17,15.00
2005,07,06,07,18,15.00
2005,07,06,07,19,15.00
2005,07,06,07,20,15.00
2005,07,06,07,21,14.90
2005,07,06,07,22,14.90
2005,07,06,07,23,14.90
2005,07,06,07,24,14.90
2005,07,06,07,25,14.90
2005,07,06,07,26,14.80
2005,07,06,07,27,14.80
2005,07,06,07,28,14.80
2005,07,06,07,29,14.80
2005,07,06,07,30,14.80
2005,07,06,07,31,14.80
2005,07,06,07,32,14.80
2005,07,06,07,33,14.80
2005,07,06,07,34,14.80
2005,07,06,07,35,14.80
2005,07,06,07,36,14.80
2005,07,06,07,37,14.80
2005,07,06,07,38,14.80
2005,07,06,07,39,14.80
2005,07,06,07,40,14.80
2005,07,06,07,41,14.80
2005,07,06,07,42,14.80
2005,07,06,07,43,14.80
2005,07,06,07,44,14.80
2005,07,06,07,45,14.80
2005,07,06,07,46,14.80
2005,07,06,07,47,14.80
2005,07,06,07,48,14.80
2005,07,06,07,49,14.70
2005,07,06,07,50,14.70
2005,07,06,07,51,14.70
2005,07,06,07,52,14.70
2005,07,06,07,53,14.80
2005,07,06,07,54,14.80
2005,07,06,07,55,14.80
2005,07,06,07,56,14.80
2005,07,06,07,57,14.80
2005,07,06,07,58,14.80
2005,07,06,07,59,14.80
2005,07,06,08,00,14.80
2005,07,06,08,01,14.80
2005,07,06,08,02,14.80
2005,07,06,08,03,14.90
2005,07,06,08,04,14.90
2005,07,06,08,05,14.90
2005,07,06,08,06,14.90
2005,07,06,08,07,15.00
2005,07,06,08,08,15.00
2005,07,06,08,09,15.00
2005,07,06,08,10,15.10
2005,07,06,08,11,15.10
2005,07,06,08,12,15.10
2005,07,06,08,13,15.20
2005,07,06,08,14,15.20
2005,07,06,08,15,15.20
2005,07,06,08,16,15.20
2005,07,06,08,17,15.20
2005,07,06,08,18,15.20
2005,07,06,08,19,15.20
2005,07,06,08,20,15.30
2005,07,06,08,21,15.30
2005,07,06,08,22,15.30
2005,07,06,08,23,15.30
2005,07,06,08,24,15.30
2005,07,06,08,25,15.30
2005,07,06,08,26,15.40
2005,07,06,08,27,15.40
2005,07,06,08,28,15.50
2005,07,06,08,29,15.60
2005,07,06,08,30,15.60
2005,07,06,08,31,15.60
2005,07,06,08,32,15.70
2005,07,06,08,33,15.70
2005,07,06,08,34,15.80
2005,07,06,08,35,15.80
2005,07,06,08,36,15.80
2005,07,06,08,37,15.80
2005,07,06,08,38,15.80
2005,07,06,08,39,15.80
2005,07,06,08,40,15.90
2005,07,06,08,41,15.90
2005,07,06,08,42,16.10
2005,07,06,08,43,16.10
2005,07,06,08,44,16.10
2005,07,06,08,45,16.10
2005,07,06,08,46,16.20
2005,07,06,08,47,16.20
2005,07,06,08,48,16.30
2005,07,06,08,49,16.40
2005,07,06,08,50,16.40
2005,07,06,08,51,16.50
2005,07,06,08,52,16.60
2005,07,06,08,53,16.70
2005,07,06,08,54,16.70
2005,07,06,08,55,16.90
2005,07,06,08,56,16.90
2005,07,06,08,57,17.00
2005,07,06,08,58,17.00
2005,07,06,08,59,17.10
2005,07,06,09,00,17.10
2005,07,06,09,01,17.20
2005,07,06,09,02,17.20
2005,07,06,09,03,17.20
2005,07,06,09,04,17.30
2005,07,06,09,05,17.30
2005,07,06,09,06,17.30
2005,07,06,09,07,17.30
2005,07,06,09,08,17.40
2005,07,06,09,09,17.40
2005,07,06,09,10,17.40
2005,07,06,09,11,17.40
2005,07,06,09,12,17.40
2005,07,06,09,13,17.50
2005,07,06,09,14,17.40
2005,07,06,09,15,17.40
2005,07,06,09,16,17.30
2005,07,06,09,17,17.30
2005,07,06,09,18,17.30
2005,07,06,09,19,17.20
2005,07,06,09,20,17.20
2005,07,06,09,21,17.20
2005,07,06,09,22,17.20
2005,07,06,09,23,17.10
2005,07,06,09,24,17.10
2005,07,06,09,25,17.00
2005,07,06,09,26,17.00
2005,07,06,09,27,17.00
2005,07,06,09,28,17.00
2005,07,06,09,29,16.90
2005,07,06,09,30,16.90
2005,07,06,09,31,16.90
2005,07,06,09,32,16.90
2005,07,06,09,33,17.00
2005,07,06,09,34,17.00
2005,07,06,09,35,17.00
2005,07,06,09,36,17.00
2005,07,06,09,37,17.10
2005,07,06,09,38,17.20
2005,07,06,09,39,17.20
2005,07,06,09,40,17.20
2005,07,06,09,41,17.30
2005,07,06,09,42,17.30
2005,07,06,09,43,17.40
2005,07,06,09,44,17.40
2005,07,06,09,45,17.50
2005,07,06,09,46,17.50
2005,07,06,09,47,17.60
2005,07,06,09,48,17.70
2005,07,06,09,49,17.80
2005,07,06,09,50,17.90
2005,07,06,09,51,17.90
2005,07,06,09,52,17.90
2005,07,06,09,53,17.90
2005,07,06,09,54,17.90
2005,07,06,09,55,17.80
2005,07,06,09,56,17.80
2005,07,06,09,57,17.80
2005,07,06,09,58,17.90
2005,07,06,09,59,17.90
2005,07,06,10,00,17.90
2005,07,06,10,01,17.90
2005,07,06,10,02,17.90
2005,07,06,10,03,17.90
2005,07,06,10,04,17.90
2005,07,06,10,05,18.00
2005,07,06,10,06,18.10
2005,07,06,10,07,18.10
2005,07,06,10,08,18.10
2005,07,06,10,09,18.10
2005,07,06,10,10,18.10
2005,07,06,10,11,18.10
2005,07,06,10,12,18.20
2005,07,06,10,13,18.20
2005,07,06,10,14,18.20
2005,07,06,10,15,18.20
2005,07,06,10,16,18.20
2005,07,06,10,17,18.20
2005,07,06,10,18,18.30
2005,07,06,10,19,18.30
2005,07,06,10,20,18.40
2005,07,06,10,21,18.40
2005,07,06,10,22,18.50
2005,07,06,10,23,18.50
2005,07,06,10,24,18.60
2005,07,06,10,25,18.60
2005,07,06,10,26,18.60
2005,07,06,10,27,18.60
2005,07,06,10,28,18.60
2005,07,06,10,29,18.60
2005,07,06,10,30,18.70
2005,07,06,10,31,18.70
2005,07,06,10,32,18.70
2005,07,06,10,33,18.70
2005,07,06,10,34,18.70
2005,07,06,10,35,18.70
2005,07,06,10,36,18.70
2005,07,06,10,37,18.70
2005,07,06,10,38,18.70
2005,07,06,10,39,18.70
2005,07,06,10,40,18.70
2005,07,06,10,41,18.60
2005,07,06,10,42,18.60
2005,07,06,10,43,18.60
2005,07,06,10,44,18.50
2005,07,06,10,45,18.40
2005,07,06,10,46,18.40
2005,07,06,10,47,18.30
2005,07,06,10,48,18.20
2005,07,06,10,49,18.20
2005,07,06,10,50,18.20
2005,07,06,10,51,18.20
2005,07,06,10,52,18.10
2005,07,06,10,53,18.10
2005,07,06,10,54,18.10
2005,07,06,10,55,18.10
2005,07,06,10,56,18.10
2005,07,06,10,57,18.00
2005,07,06,10,58,18.00
2005,07,06,10,59,18.10
2005,07,06,11,00,18.10
2005,07,06,11,01,18.10
2005,07,06,11,02,18.10
2005,07,06,11,03,18.10
2005,07,06,11,04,18.10
2005,07,06,11,05,18.10
2005,07,06,11,06,18.20
2005,07,06,11,07,18.20
2005,07,06,11,08,18.20
2005,07,06,11,09,18.10
2005,07,06,11,10,18.00
2005,07,06,11,11,17.90
2005,07,06,11,12,17.90
2005,07,06,11,13,17.90
2005,07,06,11,14,17.90
2005,07,06,11,15,17.90
2005,07,06,11,16,17.90
2005,07,06,11,17,17.90
2005,07,06,11,18,18.00
2005,07,06,11,19,18.10
2005,07,06,11,20,18.10
2005,07,06,11,21,18.20
2005,07,06,11,22,18.20
2005,07,06,11,23,18.20
2005,07,06,11,24,18.30
2005,07,06,11,25,18.40
2005,07,06,11,26,18.40
2005,07,06,11,27,18.50
2005,07,06,11,28,18.50
2005,07,06,11,29,18.40
2005,07,06,11,30,18.40
2005,07,06,11,31,18.40
2005,07,06,11,32,18.40
2005,07,06,11,33,18.40
2005,07,06,11,34,18.30
2005,07,06,11,35,18.40
2005,07,06,11,36,18.40
2005,07,06,11,37,18.40
2005,07,06,11,38,18.40
2005,07,06,11,39,18.30
2005,07,06,11,40,18.20
2005,07,06,11,41,18.20
2005,07,06,11,42,18.00
2005,07,06,11,43,17.90
2005,07,06,11,44,17.90
2005,07,06,11,45,17.80
2005,07,06,11,46,17.80
2005,07,06,11,47,17.80
2005,07,06,11,48,17.80
2005,07,06,11,49,17.70
2005,07,06,11,50,17.70
2005,07,06,11,51,17.70
2005,07,06,11,52,17.60
2005,07,06,11,53,17.60
2005,07,06,11,54,17.60
2005,07,06,11,55,17.70
2005,07,06,11,56,17.70
2005,07,06,11,57,17.60
2005,07,06,11,58,17.60
2005,07,06,11,59,17.60
2005,07,06,12,00,17.60
2005,07,06,12,01,17.60
2005,07,06,12,02,17.50
2005,07,06,12,03,17.60
2005,07,06,12,04,17.60
2005,07,06,12,05,17.70
2005,07,06,12,06,17.70
2005,07,06,12,07,17.70
2005,07,06,12,08,17.70
2005,07,06,12,09,17.80
2005,07,06,12,10,17.90
2005,07,06,12,11,17.90
2005,07,06,12,12,18.00
2005,07,06,12,13,18.10
2005,07,06,12,14,18.20
2005,07,06,12,15,18.20
2005,07,06,12,16,18.20
2005,07,06,12,17,18.20
2005,07,06,12,18,18.20
2005,07,06,12,19,18.20
2005,07,06,12,20,18.20
2005,07,06,12,21,18.20
2005,07,06,12,22,18.20
2005,07,06,12,23,18.20
2005,07,06,12,24,18.20
2005,07,06,12,25,18.20
2005,07,06,12,26,18.20
2005,07,06,12,27,18.20
2005,07,06,12,28,18.20
2005,07,06,12,29,18.10
2005,07,06,12,30,18.10
2005,07,06,12,31,18.20
2005,07,06,12,32,18.20
2005,07,06,12,33,18.20
2005,07,06,12,34,18.20
2005,07,06,12,35,18.20
2005,07,06,12,36,18.30
2005,07,06,12,37,18.30
2005,07,06,12,38,18.40
2005,07,06,12,39,18.40
2005,07,06,12,40,18.40
2005,07,06,12,41,18.40
2005,07,06,12,42,18.30
2005,07,06,12,43,18.30
2005,07,06,12,44,18.40
2005,07,06,12,45,18.40
2005,07,06,12,46,18.50
2005,07,06,12,47,18.50
2005,07,06,12,48,18.60
2005,07,06,12,49,18.70
2005,07,06,12,50,18.80
2005,07,06,12,51,18.80
2005,07,06,12,52,18.80
2005,07,06,12,53,18.90
2005,07,06,12,54,18.90
2005,07,06,12,55,19.00
2005,07,06,12,56,19.10
2005,07,06,12,57,19.10
2005,07,06,12,58,19.10
2005,07,06,12,59,19.20
2005,07,06,13,00,19.30
2005,07,06,13,01,19.40
2005,07,06,13,02,19.50
2005,07,06,13,03,19.60
2005,07,06,13,04,19.60
2005,07,06,13,05,19.60
2005,07,06,13,06,19.70
2005,07,06,13,07,19.80
2005,07,06,13,08,19.70
2005,07,06,13,09,19.60
2005,07,06,13,10,19.50
2005,07,06,13,11,19.40
2005,07,06,13,12,19.30
2005,07,06,13,13,19.30
2005,07,06,13,14,19.30
2005,07,06,13,15,19.30
2005,07,06,13,16,19.30
2005,07,06,13,17,19.40
2005,07,06,13,18,19.40
2005,07,06,13,19,19.40
2005,07,06,13,20,19.40
2005,07,06,13,21,19.50
2005,07,06,13,22,19.50
2005,07,06,13,23,19.50
2005,07,06,13,24,19.40
2005,07,06,13,25,19.40
2005,07,06,13,26,19.40
2005,07,06,13,27,19.40
2005,07,06,13,28,19.40
2005,07,06,13,29,19.40
2005,07,06,13,30,19.40
2005,07,06,13,31,19.40
2005,07,06,13,32,19.50
2005,07,06,13,33,19.50
2005,07,06,13,34,19.50
2005,07,06,13,35,19.50
2005,07,06,13,36,19.60
2005,07,06,13,37,19.60
2005,07,06,13,38,19.60
2005,07,06,13,39,19.60
2005,07,06,13,40,19.60
2005,07,06,13,41,19.60
2005,07,06,13,42,19.70
2005,07,06,13,43,19.70
2005,07,06,13,44,19.70
2005,07,06,13,45,19.70
2005,07,06,13,46,19.70
2005,07,06,13,47,19.70
2005,07,06,13,48,19.60
2005,07,06,13,49,19.60
2005,07,06,13,50,19.60
2005,07,06,13,51,19.70
2005,07,06,13,52,19.80
2005,07,06,13,53,19.80
2005,07,06,13,54,19.80
2005,07,06,13,55,19.80
2005,07,06,13,56,19.90
2005,07,06,13,57,19.90
2005,07,06,13,58,20.00
2005,07,06,13,59,20.10
2005,07,06,14,00,20.10
2005,07,06,14,01,20.10
2005,07,06,14,02,20.20
2005,07,06,14,03,20.20
2005,07,06,14,04,20.30
2005,07,06,14,05,20.30
2005,07,06,14,06,20.40
2005,07,06,14,07,20.50
2005,07,06,14,08,20.50
2005,07,06,14,09,20.50
2005,07,06,14,10,20.40
2005,07,06,14,11,20.40
2005,07,06,14,12,20.40
2005,07,06,14,13,20.30
2005,07,06,14,14,20.30
2005,07,06,14,15,20.30
2005,07,06,14,16,20.30
2005,07,06,14,17,20.30
2005,07,06,14,18,20.30
2005,07,06,14,19,20.30
2005,07,06,14,20,20.30
2005,07,06,14,21,20.30
2005,07,06,14,22,20.20
2005,07,06,14,23,20.20
2005,07,06,14,24,20.20
2005,07,06,14,25,20.10
2005,07,06,14,26,20.10
2005,07,06,14,27,20.00
2005,07,06,14,28,19.90
2005,07,06,14,29,19.90
2005,07,06,14,30,19.90
2005,07,06,14,31,19.90
2005,07,06,14,32,20.00
2005,07,06,14,33,20.10
2005,07,06,14,34,20.20
2005,07,06,14,35,20.20
2005,07,06,14,36,20.20
2005,07,06,14,37,20.10
2005,07,06,14,38,20.10
2005,07,06,14,39,20.10
2005,07,06,14,40,20.10
2005,07,06,14,41,20.10
2005,07,06,14,42,20.00
2005,07,06,14,43,19.90
2005,07,06,14,44,19.90
2005,07,06,14,45,19.90
2005,07,06,14,46,19.90
2005,07,06,14,47,19.90
2005,07,06,14,48,19.90
2005,07,06,14,49,19.90
2005,07,06,14,50,19.90
2005,07,06,14,51,19.80
2005,07,06,14,52,19.80
2005,07,06,14,53,19.80
2005,07,06,14,54,19.80
2005,07,06,14,55,19.80
2005,07,06,14,56,19.80
2005,07,06,14,57,19.80
2005,07,06,14,58,19.80
2005,07,06,14,59,19.70
2005,07,06,15,00,19.70
2005,07,06,15,01,19.70
2005,07,06,15,02,19.70
2005,07,06,15,03,19.80
2005,07,06,15,04,19.80
2005,07,06,15,05,19.80
2005,07,06,15,06,19.70
2005,07,06,15,07,19.70
2005,07,06,15,08,19.70
2005,07,06,15,09,19.70
2005,07,06,15,10,19.70
2005,07,06,15,11,19.70
2005,07,06,15,12,19.70
2005,07,06,15,13,19.70
2005,07,06,15,14,19.70
2005,07,06,15,15,19.60
2005,07,06,15,16,19.60
2005,07,06,15,17,19.50
2005,07,06,15,18,19.50
2005,07,06,15,19,19.50
2005,07,06,15,20,19.50
2005,07,06,15,21,19.50
2005,07,06,15,22,19.50
2005,07,06,15,23,19.50
2005,07,06,15,24,19.60
2005,07,06,15,25,19.60
2005,07,06,15,26,19.70
2005,07,06,15,27,19.60
2005,07,06,15,28,19.60
2005,07,06,15,29,19.60
2005,07,06,15,30,19.50
2005,07,06,15,31,19.50
2005,07,06,15,32,19.50
2005,07,06,15,33,19.50
2005,07,06,15,34,19.40
2005,07,06,15,35,19.40
2005,07,06,15,36,19.40
2005,07,06,15,37,19.40
2005,07,06,15,38,19.40
2005,07,06,15,39,19.40
2005,07,06,15,40,19.40
2005,07,06,15,41,19.40
2005,07,06,15,42,19.30
2005,07,06,15,43,19.40
2005,07,06,15,44,19.40
2005,07,06,15,45,19.40
2005,07,06,15,46,19.40
2005,07,06,15,47,19.40
2005,07,06,15,48,19.40
2005,07,06,15,49,19.40
2005,07,06,15,50,19.40
2005,07,06,15,51,19.50
2005,07,06,15,52,19.50
2005,07,06,15,53,19.50
2005,07,06,15,54,19.50
2005,07,06,15,55,19.50
2005,07,06,15,56,19.50
2005,07,06,15,57,19.50
2005,07,06,15,58,19.50
2005,07,06,15,59,19.60
2005,07,06,16,00,19.60
2005,07,06,16,01,19.60
2005,07,06,16,02,19.70
2005,07,06,16,03,19.80
2005,07,06,16,04,19.80
2005,07,06,16,05,19.80
2005,07,06,16,06,19.80
2005,07,06,16,07,19.80
2005,07,06,16,08,19.80
2005,07,06,16,09,19.70
2005,07,06,16,10,19.70
2005,07,06,16,11,19.60
2005,07,06,16,12,19.60
2005,07,06,16,13,19.50
2005,07,06,16,14,19.50
2005,07,06,16,15,19.50
2005,07,06,16,16,19.50
2005,07,06,16,17,19.60
2005,07,06,16,18,19.60
2005,07,06,16,19,19.60
2005,07,06,16,20,19.50
2005,07,06,16,21,19.50
2005,07,06,16,22,19.50
2005,07,06,16,23,19.50
2005,07,06,16,24,19.50
2005,07,06,16,25,19.50
2005,07,06,16,26,19.50
2005,07,06,16,27,19.60
2005,07,06,16,28,19.60
2005,07,06,16,29,19.60
2005,07,06,16,30,19.60
2005,07,06,16,31,19.60
2005,07,06,16,32,19.60
2005,07,06,16,33,19.60
2005,07,06,16,34,19.70
2005,07,06,16,35,19.60
2005,07,06,16,36,19.60
2005,07,06,16,37,19.60
2005,07,06,16,38,19.60
2005,07,06,16,39,19.60
2005,07,06,16,40,19.60
2005,07,06,16,41,19.70
2005,07,06,16,42,19.70
2005,07,06,16,43,19.70
2005,07,06,16,44,19.80
2005,07,06,16,45,19.90
2005,07,06,16,46,20.00
2005,07,06,16,47,20.10
2005,07,06,16,48,20.20
2005,07,06,16,49,20.20
2005,07,06,16,50,20.30
2005,07,06,16,51,20.30
2005,07,06,16,52,20.20
2005,07,06,16,53,20.20
2005,07,06,16,54,20.20
2005,07,06,16,55,20.20
2005,07,06,16,56,20.20
2005,07,06,16,57,20.20
2005,07,06,16,58,20.30
2005,07,06,16,59,20.30
2005,07,06,17,00,20.30
2005,07,06,17,01,20.30
2005,07,06,17,02,20.40
2005,07,06,17,03,20.40
2005,07,06,17,04,20.50
2005,07,06,17,05,20.40
2005,07,06,17,06,20.40
2005,07,06,17,07,20.40
2005,07,06,17,08,20.40
2005,07,06,17,09,20.30
2005,07,06,17,10,20.30
2005,07,06,17,11,20.30
2005,07,06,17,12,20.30
2005,07,06,17,13,20.20
2005,07,06,17,14,20.20
2005,07,06,17,15,20.20
2005,07,06,17,16,20.20
2005,07,06,17,17,20.20
2005,07,06,17,18,20.20
2005,07,06,17,19,20.20